Location: York
(31.8935°S, 116.7682°E)
Time: 19:31:07
(UTC+08:00)

DX 1 - Pass Details

Date: 04 August 2021
Orbit: 618 x 631 km, 98.4° (Epoch: 16 September)

Event Time Altitude Azimuth Distance (km) Brightness Sun altitude
Rises 20:10:06 0° 335° (NNW) 2,889 ? -32.2°
Reaches altitude 10° 20:13:03 10° 313° (NW) 1,991 ? -32.9°
Maximum altitude 20:15:41 16° 275° (W) 1,649 ? -33.4°
Drops below altitude 10° 20:18:20 10° 237° (WSW) 2,006 ? -34.0°
Sets 20:21:21 0° 215° (SW) 2,921 ? -34.6°
